Location: Harbor Isles
(36.0020°N, 86.4672°W)
Time: 17:16:47
(UTC+00:00)

Daily predictions for brighter satellites

Satellite Brightness Start Highest point End
(mag) Time Altitude Azimuth Time Altitude Azimuth Time Altitude Azimuth
OAO 3 Copernicus 4.5 12:02:07 12° W 12:06:43 68° S 12:11:43 10° ESE
Cosmos 1943 3.3 12:02:06 10° SSW 12:07:47 85° ESE 12:13:31 10° NNE
Cosmos 1315 Rocket 3.7 12:06:58 10° SW 12:10:19 27° WNW 12:13:41 10° NNW
Cosmos 1689 Rocket 3.2 12:08:58 10° SSW 12:11:21 23° W 12:13:44 10° NW
CZ-4B R/B 3.6 12:06:41 10° NNE 12:12:19 73° ESE 12:17:48 10° S
CORIOLIS 4.4 12:09:07 10° NNE 12:14:29 78° ESE 12:19:50 10° S
AQUARIUS 4.1 12:11:34 10° N 12:16:05 84° WNW 12:20:33 10° SSW
NOAA 6 4.3 12:16:51 10° N 12:21:49 47° WNW 12:26:46 10° SW
Cosmos 1346 Rocket 4.0 12:19:56 10° NW 12:23:06 23° W 12:26:17 10° SW
CZ-2D R/B 4.1 23:31:13 10° SE 23:34:34 29° ENE 23:37:56 10° NNE
CZ-4B R/B 3.5 23:29:12 10° SSE 23:34:45 81° WSW 23:40:26 10° NNW
CORIOLIS 4.3 23:29:31 10° SSE 23:34:55 82° WSW 23:40:19 10° NNW
Cosmos 405 4.3 23:36:55 10° NNE 23:39:35 20° ENE 23:42:13 10° SE
USA 229 DEB 4.4 23:34:35 10° NNW 23:41:22 38° NE 23:48:25 10° ESE
CZ-2C R/B 3.6 23:36:21 10° SE 23:41:23 42° ENE 23:46:40 10° N
USA 229 4.4 23:34:42 10° NNW 23:41:28 37° NE 23:48:29 10° ESE
Cosmos 1602 Rocket 3.5 23:37:47 10° S 23:42:05 70° E 23:46:27 10° NNE
Iridium 4 Rocket 4.0 23:41:10 10° NNE 23:45:55 35° E 23:50:18 10° SSE
H-2A R/B 3.5 23:41:54 10° N 23:45:58 39° WNW 23:49:55 10° SW
SJ 16-02 3.8 23:43:49 10° WSW 23:47:15 22° WNW 23:50:41 10° NNW
YAOGAN 1 3.7 23:44:56 10° ESE 23:48:20 23° ENE 23:51:43 10° NNE
Helios 1A Rocket 4.4 23:46:53 10° ESE 23:49:33 17° ENE 23:52:14 10° NNE
ARGOS 4.3 23:46:35 10° ESE 23:50:21 20° ENE 23:54:08 10° NNE
Cosmos 1939 Rocket 2.9 23:48:37 10° SSE 23:52:42 86° E 23:56:47 10° N
